User: anonymous   Login
Location: Unspecified
(0.0000°N, 0.0000°E)
Time: 07:20:35
(UTC+00:00)
Language:

FORMOSAT 3E - Orbit

View from above orbital plane
View from above orbital plane
View from above satellite
View from above satellite

Ground track
Ground track

The orbit data is extracted from the following two-line orbital elements,

1 29051U 06011E   17290.50229890 +.00000092 +00000-0 +51588-4 0  9991
2 29051 072.0044 279.6263 0067975 170.8491 189.3903 14.28620618603083
Epoch (UTC): 17 October 2017 12:03:18
Eccentricity: 0.0067975
inclination: 72.0044°
perigee height: 747 km
apogee height: 845 km
right ascension of ascending node: 279.6263°
argument of perigee: 170.8491°
revolutions per day: 14.28620618
mean anomaly at epoch: 189.3903°
orbit number at epoch: 60308

The dashed part of the orbit path shows where the satellite is in the earth's shadow,  

DLR